| time (UTC) | temp F | wind direction | speed MPH | gust MPH | rain 1hr in | rain 24hr in | rain mn in | humidity % | barometer mb |
| 20260906161516 | 74 | 100 | 3.0 | 11.0 | 0.00 | 0.03 | 0.00 | 71 | 1018.7 |
| 20260906154552 | 74 | 128 | 0.0 | 0.0 | 0.01 | 0.04 | 0.02 | 76 | 1018.4 |
| 20260906153048 | 73 | 105 | 0.0 | 12.0 | 0.01 | 0.04 | 0.02 | 77 | 1018.4 |
| 20260906151551 | 73 | 88 | 0.0 | 0.0 | 0.01 | 0.04 | 0.02 | 79 | 1018.2 |
| 20260906150039 | 72 | 112 | 3.0 | 9.0 | 0.00 | 0.03 | 0.01 | 80 | 1018.2 |
| 20260906144538 | 72 | 115 | 1.0 | 9.0 | 0.00 | 0.03 | 0.01 | 79 | 1018.2 |
| 20260906143036 | 72 | 100 | 0.0 | 7.0 | 0.00 | 0.03 | 0.01 | 80 | 1018.2 |
| 20260906141533 | 71 | 120 | 1.0 | 6.0 | 0.00 | 0.03 | 0.01 | 81 | 1018.1 |
| 20260906140030 | 70 | 46 | 0.0 | 5.0 | 0.00 | 0.03 | 0.01 | 86 | 1017.9 |
| 20260906134527 | 69 | 101 | 0.0 | 5.0 | 0.00 | 0.03 | 0.01 | 86 | 1017.9 |
| 20260906133024 | 69 | 86 | 0.0 | 4.0 | 0.00 | 0.03 | 0.01 | 88 | 1017.8 |
| 20260906131523 | 68 | 79 | 0.0 | 4.0 | 0.00 | 0.03 | 0.01 | 89 | 1017.8 |
| 20260906130018 | 67 | 53 | 0.0 | 5.0 | 0.00 | 0.03 | 0.01 | 90 | 1017.7 |
| 20260906124514 | 65 | 36 | 0.0 | 1.0 | 0.00 | 0.03 | 0.01 | 91 | 1017.6 |
| 20260906123013 | 64 | 34 | 0.0 | 0.0 | 0.00 | 0.03 | 0.01 | 92 | 1017.6 |
| 20260906121513 | 63 | 57 | 0.0 | 0.0 | 0.00 | 0.03 | 0.01 | 92 | 1017.5 |
| 20260906120012 | 62 | 50 | 0.0 | 0.0 | 0.00 | 0.03 | 0.01 | 93 | 1017.3 |
| 20260906114508 | 62 | 51 | 0.0 | 0.0 | 0.00 | 0.03 | 0.01 | 93 | 1017.2 |
| 20260906113007 | 62 | 43 | 0.0 | 0.0 | 0.00 | 0.03 | 0.01 | 93 | 1017.0 |
| 20260906111507 | 61 | 25 | 0.0 | 0.0 | 0.00 | 0.03 | 0.01 | 93 | 1016.9 |
| 20260906110003 | 62 | 25 | 0.0 | 0.0 | 0.00 | 0.03 | 0.01 | 92 | 1016.7 |
| 20260906104501 | 62 | 56 | 0.0 | 0.0 | 0.00 | 0.03 | 0.01 | 92 | 1016.6 |
| 20260906103101 | 62 | 51 | 0.0 | 0.0 | 0.00 | 0.03 | 0.01 | 92 | 1016.5 |
| 20260906101559 | 62 | 51 | 0.0 | 0.0 | 0.00 | 0.03 | 0.01 | 92 | 1016.3 |
| 20260906100059 | 62 | 52 | 0.0 | 0.0 | 0.00 | 0.03 | 0.01 | 92 | 1016.4 |
| 20260906094558 | 62 | 52 | 0.0 | 0.0 | 0.01 | 0.03 | 0.01 | 92 | 1016.5 |
| 20260906093057 | 62 | 52 | 0.0 | 0.0 | 0.01 | 0.03 | 0.01 | 92 | 1016.3 |
| 20260906091556 | 62 | 52 | 0.0 | 0.0 | 0.01 | 0.03 | 0.01 | 91 | 1016.4 |
| 20260906090054 | 62 | 52 | 0.0 | 0.0 | 0.01 | 0.03 | 0.01 | 91 | 1016.3 |
| 20260906084552 | 62 | 52 | 0.0 | 0.0 | 0.00 | 0.03 | 0.00 | 91 | 1016.1 |
| 20260906083051 | 62 | 53 | 0.0 | 0.0 | 0.00 | 0.03 | 0.00 | 91 | 1015.9 |
| 20260906081550 | 62 | 54 | 0.0 | 0.0 | 0.00 | 0.03 | 0.00 | 91 | 1016.1 |
| 20260906080052 | 62 | 54 | 0.0 | 0.0 | 0.00 | 0.03 | 0.00 | 91 | 1016.0 |
| 20260906074549 | 62 | 54 | 0.0 | 0.0 | 0.00 | 0.03 | 0.00 | 91 | 1015.9 |
| 20260906073046 | 62 | 55 | 0.0 | 0.0 | 0.00 | 0.03 | 0.00 | 90 | 1015.7 |
| 20260906071546 | 62 | 54 | 0.0 | 0.0 | 0.00 | 0.03 | 0.00 | 90 | 1015.6 |
| 20260906070045 | 63 | 57 | 0.0 | 0.0 | 0.00 | 0.03 | 0.00 | 89 | 1015.5 |
| 20260906064544 | 63 | 57 | 0.0 | 0.0 | 0.00 | 0.03 | 0.00 | 89 | 1015.6 |
| 20260906063043 | 63 | 73 | 0.0 | 0.0 | 0.00 | 0.03 | 0.00 | 89 | 1015.5 |
| 20260906061542 | 63 | 46 | 0.0 | 0.0 | 0.00 | 0.03 | 0.00 | 88 | 1015.6 |
| 20260906060041 | 63 | 58 | 0.0 | 0.0 | 0.00 | 0.03 | 0.00 | 87 | 1015.5 |
| 20260906054540 | 63 | 53 | 0.0 | 0.0 | 0.00 | 0.03 | 0.00 | 87 | 1015.4 |
| 20260906053038 | 64 | 50 | 0.0 | 0.0 | 0.00 | 0.03 | 0.00 | 87 | 1015.4 |
| 20260906051537 | 64 | 36 | 0.0 | 0.0 | 0.00 | 0.03 | 0.00 | 86 | 1015.6 |
| 20260906050036 | 64 | 32 | 0.0 | 0.0 | 0.00 | 0.03 | 0.00 | 85 | 1015.6 |
| 20260906044534 | 64 | 32 | 0.0 | 0.0 | 0.00 | 0.03 | 0.00 | 85 | 1015.6 |
| 20260906043033 | 65 | 32 | 0.0 | 0.0 | 0.00 | 0.03 | 0.00 | 84 | 1015.5 |
| 20260906041530 | 65 | 26 | 0.0 | 0.0 | 0.00 | 0.03 | 0.00 | 83 | 1015.6 |
| 20260906040028 | 65 | 24 | 0.0 | 0.0 | 0.00 | 0.03 | 0.00 | 82 | 1015.5 |
| 20260906034527 | 66 | 59 | 0.0 | 0.0 | 0.00 | 0.03 | 0.03 | 81 | 1015.5 |
| 20260906033025 | 66 | 55 | 0.0 | 0.0 | 0.00 | 0.03 | 0.03 | 79 | 1015.4 |
| 20260906031523 | 67 | 94 | 0.0 | 0.0 | 0.00 | 0.03 | 0.03 | 78 | 1015.4 |
| 20260906030021 | 67 | 86 | 0.0 | 0.0 | 0.00 | 0.03 | 0.03 | 75 | 1015.2 |
| 20260906024519 | 68 | 55 | 0.0 | 0.0 | 0.00 | 0.04 | 0.03 | 75 | 1015.4 |
| 20260906023016 | 68 | 74 | 0.0 | 0.0 | 0.00 | 0.04 | 0.03 | 74 | 1015.4 |
| 20260906021525 | 69 | 105 | 0.0 | 0.0 | 0.00 | 0.04 | 0.03 | 74 | 1015.3 |
| 20260906020017 | 69 | 100 | 0.0 | 6.0 | 0.00 | 0.04 | 0.03 | 74 | 1015.4 |
| 20260906014515 | 70 | 115 | 0.0 | 0.0 | 0.00 | 0.04 | 0.03 | 73 | 1015.0 |
| 20260906013017 | 70 | 96 | 0.0 | 0.0 | 0.00 | 0.04 | 0.03 | 71 | 1015.1 |
| 20260906011506 | 71 | 90 | 0.0 | 0.0 | 0.00 | 0.04 | 0.03 | 68 | 1014.9 |
| 20260906010004 | 71 | 94 | 0.0 | 0.0 | 0.00 | 0.04 | 0.03 | 67 | 1014.8 |
| 20260906004502 | 72 | 84 | 0.0 | 0.0 | 0.00 | 0.04 | 0.03 | 68 | 1014.4 |
| 20260906003003 | 72 | 82 | 0.0 | 0.0 | 0.00 | 0.04 | 0.03 | 70 | 1014.3 |
| 20260906001600 | 73 | 102 | 0.0 | 0.0 | 0.00 | 0.04 | 0.03 | 70 | 1014.3 |
| 20260906000059 | 73 | 96 | 0.0 | 0.0 | 0.00 | 0.04 | 0.03 | 68 | 1014.2 |
| 20260905234556 | 74 | 105 | 0.0 | 9.0 | 0.00 | 0.04 | 0.03 | 67 | 1014.2 |
| 20260905233106 | 74 | 64 | 0.0 | 0.0 | 0.01 | 0.04 | 0.03 | 65 | 1014.3 |
| 20260905231555 | 75 | 49 | 0.0 | 0.0 | 0.01 | 0.04 | 0.03 | 65 | 1014.2 |
| 20260905230054 | 76 | 134 | 0.0 | 0.0 | 0.01 | 0.04 | 0.03 | 62 | 1013.9 |
| 20260905224556 | 76 | 94 | 0.0 | 5.0 | 0.01 | 0.04 | 0.03 | 63 | 1013.8 |
| 20260905223054 | 77 | 94 | 2.0 | 8.0 | 0.00 | 0.03 | 0.02 | 59 | 1013.7 |
| 20260905221551 | 77 | 94 | 0.0 | 0.0 | 0.00 | 0.03 | 0.02 | 59 | 1013.6 |
| 20260905220051 | 78 | 101 | 0.0 | 8.0 | 0.00 | 0.03 | 0.02 | 58 | 1013.5 |
| 20260905214548 | 78 | 98 | 0.0 | 0.0 | 0.00 | 0.03 | 0.02 | 61 | 1013.4 |
| 20260905213049 | 78 | 134 | 0.0 | 10.0 | 0.00 | 0.03 | 0.02 | 64 | 1013.1 |
| 20260905211546 | 78 | 94 | 0.0 | 2.0 | 0.00 | 0.03 | 0.02 | 66 | 1013.3 |
| 20260905210045 | 78 | 129 | 0.0 | 0.0 | 0.00 | 0.03 | 0.02 | 65 | 1013.4 |
| 20260905204545 | 78 | 130 | 0.0 | 0.0 | 0.00 | 0.03 | 0.02 | 66 | 1013.3 |
| 20260905203044 | 77 | 144 | 0.0 | 0.0 | 0.00 | 0.03 | 0.02 | 68 | 1013.4 |
| 20260905201543 | 77 | 107 | 0.0 | 0.0 | 0.00 | 0.03 | 0.02 | 69 | 1013.6 |
| 20260905200048 | 77 | 105 | 0.0 | 0.0 | 0.00 | 0.03 | 0.02 | 68 | 1013.8 |
| 20260905194544 | 77 | 135 | 0.0 | 3.0 | 0.00 | 0.04 | 0.02 | 68 | 1013.7 |
| 20260905193039 | 77 | 111 | 0.0 | 3.0 | 0.00 | 0.04 | 0.02 | 70 | 1013.8 |
| 20260905191542 | 77 | 115 | 0.0 | 2.0 | 0.00 | 0.04 | 0.02 | 70 | 1014.0 |
| 20260905190046 | 78 | 150 | 0.0 | 0.0 | 0.00 | 0.04 | 0.02 | 69 | 1014.0 |
| 20260905184539 | 77 | 59 | 0.0 | 0.0 | 0.00 | 0.04 | 0.02 | 71 | 1014.0 |
| 20260905183030 | 77 | 105 | 0.0 | 0.0 | 0.01 | 0.04 | 0.02 | 72 | 1014.0 |
| 20260905181529 | 76 | 80 | 0.0 | 0.0 | 0.01 | 0.04 | 0.02 | 74 | 1014.1 |
| 20260905180028 | 76 | 94 | 0.0 | 0.0 | 0.01 | 0.04 | 0.02 | 72 | 1014.1 |
| 20260905174527 | 76 | 84 | 0.0 | 0.0 | 0.01 | 0.04 | 0.02 | 73 | 1014.1 |
| 20260905173021 | 75 | 89 | 0.0 | 0.0 | 0.00 | 0.03 | 0.01 | 76 | 1014.1 |
| 20260905171521 | 74 | 86 | 0.0 | 0.0 | 0.00 | 0.03 | 0.01 | 78 | 1014.4 |
| 20260905170020 | 74 | 58 | 0.0 | 0.0 | 0.00 | 0.03 | 0.01 | 78 | 1014.5 |
| 20260905164519 | 74 | 109 | 0.0 | 0.0 | 0.00 | 0.03 | 0.01 | 77 | 1014.3 |
| 20260905163017 | 74 | 102 | 0.0 | 0.0 | 0.00 | 0.03 | 0.01 | 79 | 1014.3 |